CDT,Max TemperatureF,Mean TemperatureF,Min TemperatureF,Max Dew PointF,MeanDew PointF,Min DewpointF,Max Humidity, Mean Humidity, Min Humidity, Max Sea Level PressureIn, Mean Sea Level PressureIn, Min Sea Level PressureIn, Max VisibilityMiles, Mean VisibilityMiles, Min VisibilityMiles, Max Wind SpeedMPH, Mean Wind SpeedMPH, Max Gust SpeedMPH,PrecipitationIn, CloudCover, Events, WindDirDegrees
2012-9-1,82,68,55,55,51,47,80,51,35,30.19,30.09,29.98,10,10,10,18,8,26,0.00,0,,123
2012-9-2,84,73,62,65,56,49,87,60,47,29.97,29.86,29.77,10,10,10,21,12,26,0.00,0,,172
2012-9-3,90,68,48,58,49,37,100,75,18,29.93,29.90,29.86,10,5,0,20,3,26,0.03,1,Fog-Rain,270
2012-9-4,84,72,59,56,51,39,75,53,20,29.87,29.80,29.78,10,10,10,18,5,23,0.01,1,Rain,299
2012-9-5,75,63,50,52,46,43,84,57,35,29.90,29.86,29.80,10,10,10,20,9,29,0.00,3,,283
2012-9-6,72,58,46,55,47,43,97,71,39,29.98,29.94,29.90,10,10,8,13,3,,0.13,3,Rain,304
2012-9-7,63,53,44,50,44,41,93,74,50,30.09,30.05,29.97,10,10,10,18,9,26,0.00,4,,322
2012-9-8,66,52,39,48,44,38,93,72,40,30.12,30.00,29.89,10,10,10,26,9,37,0.01,4,,314
2012-9-9,70,54,39,49,45,37,100,77,39,30.24,30.16,30.04,10,8,0,8,4,,0.00,3,Fog,302
2012-9-10,82,65,48,49,46,43,83,52,28,30.02,29.82,29.69,10,10,10,26,13,34,0.00,0,,164
2012-9-11,82,72,61,53,47,30,67,48,29,29.91,29.71,29.65,10,10,10,20,8,24,0.00,0,,181
2012-9-12,71,58,46,40,29,21,66,36,16,30.22,30.10,29.94,10,10,10,26,10,38,0.00,0,,276
2012-9-13,70,51,33,33,27,23,76,39,18,30.34,30.30,30.23,10,10,10,14,5,26,0.00,2,,301
2012-9-14,70,51,32,41,33,29,89,51,23,30.38,30.33,30.25,10,10,10,10,2,,0.00,0,,84
2012-9-15,80,62,44,48,41,34,74,50,21,30.25,30.04,29.83,10,10,10,13,6,,0.00,0,,143
2012-9-16,73,58,45,48,41,35,86,57,26,30.06,29.95,29.83,10,10,10,16,7,23,0.00,3,Rain,343
2012-9-17,57,46,35,39,33,27,92,63,34,30.09,30.05,30.02,10,10,8,16,9,25,0.03,3,Rain,325
2012-9-18,55,42,28,36,31,26,93,64,37,30.07,29.98,29.75,10,10,10,13,3,20,0.00,2,,196
2012-9-19,62,54,48,48,39,32,83,61,50,29.84,29.71,29.58,10,10,4,28,12,45,0.02,5,Rain,285
2012-9-20,61,50,42,43,36,29,92,62,32,29.93,29.88,29.83,10,10,10,17,11,23,0.08,5,Rain,296
2012-9-21,61,48,36,42,35,25,100,73,31,29.97,29.87,29.80,10,9,2,29,8,45,0.03,5,Rain,309
2012-9-22,53,41,30,37,31,23,87,68,33,30.30,30.20,29.99,10,10,10,23,14,30,0.00,4,,332
2012-9-23,57,41,25,34,24,19,88,58,23,30.35,30.27,30.11,10,10,10,13,3,18,0.00,0,,270
2012-9-24,78,56,36,41,31,25,70,44,19,30.09,29.86,29.71,10,10,10,23,10,31,0.00,0,,281
2012-9-25,63,45,28,39,31,25,89,60,26,30.03,29.95,29.87,10,10,10,13,4,18,0.00,0,,349
2012-9-26,62,43,26,34,28,24,92,61,27,30.24,30.16,30.04,10,10,10,7,2,,0.00,0,,33
2012-9-27,68,47,28,34,30,24,86,57,24,30.30,30.23,30.17,10,10,8,12,2,,0.00,0,,157
2012-9-28,81,58,36,42,36,30,83,51,21,30.20,30.14,30.08,10,10,10,13,3,,0.00,0,,236
2012-9-29,82,60,39,44,39,34,86,51,17,30.15,30.08,30.02,10,10,8,7,1,,0.00,0,,128
2012-9-30,82,62,41,47,40,34,86,49,17,30.02,29.93,29.85,10,10,10,12,5,17,0.00,0,,187